Time,TemperatureF,DewpointF,PressureIn,WindDirection,WindDirectionDegrees,WindSpeedMPH,WindSpeedGustMPH,Humidity,HourlyPrecipIn,Conditions,Clouds,dailyrainin,SoftwareType,DateUTC
2013-03-29 01:22:00,35.0,32.0,29.96,NNW,328,1.0,3.0,87,0.00,,,0.00,,2013-03-29 07:22:00,
2013-03-29 01:32:00,35.0,32.0,29.96,NNW,328,2.0,3.0,87,0.00,,,0.00,,2013-03-29 07:32:00,
2013-03-29 01:42:00,35.0,32.0,29.96,NNW,328,2.0,3.0,87,0.00,,,0.00,,2013-03-29 07:42:00,
2013-03-29 01:52:00,34.0,31.0,29.97,NNW,330,5.0,8.0,89,0.00,,,0.00,,2013-03-29 07:52:00,
2013-03-29 02:02:00,35.0,32.0,29.98,NW,322,6.0,9.0,90,0.00,,,0.00,,2013-03-29 08:02:00,
2013-03-29 02:12:00,35.0,32.0,29.98,NW,322,6.0,9.0,90,0.00,,,0.00,,2013-03-29 08:12:00,
2013-03-29 02:22:00,35.0,32.0,29.98,NW,322,6.0,9.0,90,0.00,,,0.00,,2013-03-29 08:22:00,
2013-03-29 02:32:00,35.0,32.0,29.98,NW,322,6.0,9.0,90,0.00,,,0.00,,2013-03-29 08:32:00,
2013-03-29 02:42:00,35.0,32.0,29.98,NW,322,6.0,9.0,90,0.00,,,0.00,,2013-03-29 08:42:00,
2013-03-29 05:03:00,34.0,31.0,29.91,NNE,16,5.0,8.0,90,0.00,,,0.00,,2013-03-29 11:03:00,
2013-03-29 05:12:00,34.0,31.0,29.91,NNE,16,5.0,8.0,90,0.00,,,0.00,,2013-03-29 11:12:00,
2013-03-29 05:23:00,34.0,31.0,29.91,NNE,19,5.0,7.0,90,0.00,,,0.00,,2013-03-29 11:23:00,
2013-03-29 05:32:00,34.0,32.0,29.91,NNW,344,4.0,7.0,91,0.00,,,0.00,,2013-03-29 11:32:00,
2013-03-29 05:42:00,34.0,32.0,29.91,NNW,344,4.0,7.0,91,0.00,,,0.00,,2013-03-29 11:42:00,
2013-03-29 05:53:00,34.0,32.0,29.90,North,360,5.0,7.0,91,0.00,,,0.00,,2013-03-29 11:53:00,
2013-03-29 06:02:00,34.0,32.0,29.90,North,360,5.0,7.0,91,0.00,,,0.00,,2013-03-29 12:02:00,
2013-03-29 06:12:00,34.0,32.0,29.90,North,360,5.0,7.0,91,0.00,,,0.00,,2013-03-29 12:12:00,
2013-03-29 06:22:00,34.0,32.0,29.90,North,360,5.0,7.0,91,0.00,,,0.00,,2013-03-29 12:22:00,
2013-03-29 08:33:00,35.0,33.0,29.88,NNE,13,4.0,8.0,91,0.00,,,0.00,,2013-03-29 14:33:00,
2013-03-29 08:42:00,35.0,33.0,29.88,NNE,13,4.0,8.0,91,0.00,,,0.00,,2013-03-29 14:42:00,
2013-03-29 08:53:00,36.0,33.0,29.88,North,5,4.0,7.0,90,0.00,,,0.00,,2013-03-29 14:53:00,
2013-03-29 09:02:00,36.0,33.0,29.88,North,5,0.0,3.0,90,0.00,,,0.00,,2013-03-29 15:02:00,
2013-03-29 09:12:00,36.0,33.0,29.88,North,5,0.0,3.0,90,0.00,,,0.00,,2013-03-29 15:12:00,
2013-03-29 09:22:00,38.0,35.0,29.87,North,5,1.0,3.0,88,0.00,,,0.00,,2013-03-29 15:22:00,
2013-03-29 09:33:00,38.0,35.0,29.87,North,5,1.0,3.0,88,0.00,,,0.00,,2013-03-29 15:33:00,
2013-03-29 09:43:00,38.0,35.0,29.87,North,5,1.0,3.0,88,0.00,,,0.00,,2013-03-29 15:43:00,
2013-03-29 09:53:00,38.0,35.0,29.87,North,5,1.0,3.0,88,0.00,,,0.00,,2013-03-29 15:53:00,
2013-03-29 12:02:00,53.0,37.0,29.85,ENE,69,2.0,5.0,55,0.00,,,0.00,,2013-03-29 18:02:00,
2013-03-29 12:12:00,53.0,37.0,29.85,ENE,69,2.0,5.0,55,0.00,,,0.00,,2013-03-29 18:12:00,
2013-03-29 12:23:00,54.0,39.0,29.85,ENE,69,3.0,7.0,56,0.00,,,0.00,,2013-03-29 18:23:00,
2013-03-29 12:32:00,54.0,38.0,29.85,East,82,4.0,8.0,54,0.00,,,0.00,,2013-03-29 18:32:00,
2013-03-29 12:42:00,54.0,38.0,29.85,East,82,4.0,8.0,54,0.00,,,0.00,,2013-03-29 18:42:00,
2013-03-29 12:52:00,56.0,40.0,29.84,East,82,0.0,5.0,54,0.00,,,0.00,,2013-03-29 18:52:00,
2013-03-29 13:02:00,56.0,40.0,29.84,East,82,0.0,5.0,54,0.00,,,0.00,,2013-03-29 19:02:00,
2013-03-29 13:12:00,56.0,40.0,29.84,East,82,0.0,5.0,54,0.00,,,0.00,,2013-03-29 19:12:00,
2013-03-29 13:23:00,56.0,40.0,29.84,East,82,0.0,5.0,54,0.00,,,0.00,,2013-03-29 19:23:00,
2013-03-29 13:32:00,56.0,40.0,29.84,East,82,0.0,5.0,54,0.00,,,0.00,,2013-03-29 19:32:00,
2013-03-29 15:53:00,59.0,38.0,29.81,NNE,31,2.0,8.0,45,0.00,,,0.00,,2013-03-29 21:53:00,
2013-03-29 16:03:00,59.0,38.0,29.80,East,94,4.0,10.0,45,0.00,,,0.00,,2013-03-29 22:03:00,
2013-03-29 16:12:00,59.0,38.0,29.80,East,94,4.0,10.0,45,0.00,,,0.00,,2013-03-29 22:12:00,
2013-03-29 16:22:00,59.0,39.0,29.80,NE,46,5.0,9.0,47,0.00,,,0.00,,2013-03-29 22:22:00,
2013-03-29 16:33:00,58.0,39.0,29.81,NE,35,4.0,9.0,50,0.00,,,0.00,,2013-03-29 22:33:00,
2013-03-29 16:42:00,58.0,39.0,29.81,NE,35,4.0,9.0,50,0.00,,,0.00,,2013-03-29 22:42:00,
2013-03-29 17:02:00,58.0,39.0,29.81,NE,35,4.0,9.0,50,0.00,,,0.00,,2013-03-29 23:02:00,
2013-03-29 17:12:00,58.0,39.0,29.81,NE,35,4.0,9.0,50,0.00,,,0.00,,2013-03-29 23:12:00,
2013-03-29 19:23:00,54.0,38.0,29.83,NW,312,5.0,7.0,54,0.00,,,0.00,,2013-03-30 01:23:00,
2013-03-29 19:33:00,52.0,37.0,29.83,NW,315,4.0,8.0,57,0.00,,,0.00,,2013-03-30 01:33:00,
2013-03-29 19:43:00,52.0,37.0,29.83,NW,315,4.0,8.0,57,0.00,,,0.00,,2013-03-30 01:43:00,
2013-03-29 19:53:00,50.0,37.0,29.83,NW,315,4.0,6.0,60,0.00,,,0.00,,2013-03-30 01:53:00,
2013-03-29 20:02:00,49.0,37.0,29.83,NW,315,4.0,7.0,64,0.00,,,0.00,,2013-03-30 02:02:00,
2013-03-29 20:12:00,49.0,37.0,29.83,NW,315,4.0,7.0,64,0.00,,,0.00,,2013-03-30 02:12:00,
2013-03-29 20:22:00,49.0,37.0,29.83,NW,315,4.0,7.0,64,0.00,,,0.00,,2013-03-30 02:22:00,
2013-03-29 20:32:00,49.0,37.0,29.83,NW,315,4.0,7.0,64,0.00,,,0.00,,2013-03-30 02:32:00,
2013-03-29 20:42:00,49.0,37.0,29.83,NW,315,4.0,7.0,64,0.00,,,0.00,,2013-03-30 02:42:00,
2013-03-29 22:53:00,43.0,36.0,29.88,NW,315,4.0,6.0,77,0.00,,,0.00,,2013-03-30 04:53:00,
2013-03-29 23:02:00,42.0,36.0,29.88,NW,315,1.0,3.0,78,0.00,,,0.00,,2013-03-30 05:02:00,
2013-03-29 23:12:00,42.0,36.0,29.88,NW,315,1.0,3.0,78,0.00,,,0.00,,2013-03-30 05:12:00,
2013-03-29 23:22:00,42.0,36.0,29.88,NW,315,4.0,5.0,79,0.00,,,0.00,,2013-03-30 05:22:00,
2013-03-29 23:32:00,41.0,35.0,29.88,NW,315,4.0,6.0,80,0.00,,,0.00,,2013-03-30 05:32:00,
2013-03-29 23:42:00,41.0,35.0,29.88,NW,315,4.0,6.0,80,0.00,,,0.00,,2013-03-30 05:42:00,
2013-03-29 23:52:00,41.0,35.0,29.88,NW,315,4.0,6.0,80,0.00,,,0.00,,2013-03-30 05:52:00,